Temperature
21 19 19 20 19 20 20 19 19 19 20 20 19 19 18 19 18 18 18 18 19 20 21 22 23 23 23 23 23 23 23 22 22 21 21 20 20 20 19 19 19 18 18 18
19 19 20 20 20 19 19 19 18 19 19 20 18 18 18 17 17 17 16 16 17 18 21 22 22 23 23 23 24 23 23 23 22 22 21 21 20 20 19 19 19 18 18 18
20 20 20 20 19 19 19 18 19 19 19 18 18 18 17 17 16 16 16 15 16 16 18 21 23 23 23 23 24 23 23 23 22 22 21 20 20 20 19 19 19 19 18 18
20 20 20 19 19 19 18 18 18 18 17 16 17 16 16 14 14 15 15 15 15 16 18 20 22 23 23 23 23 23 23 22 22 21 21 20 20 20 19 19 18 18 18 17
19 19 18 18 18 18 18 17 17 17 17 16 16 15 14 13 13 14 15 15 14 15 16 18 20 21 22 22 22 21 21 21 20 20 20 20 19 19 19 18 18 18 17 17
18 18 18 18 18 18 17 16 15 14 14 15 16 15 14 14 14 14 14 14 14 15 16 17 18 19 20 20 20 20 20 19 19 19 19 19 19 19 18 18 18 18 17 17
15 17 17 17 16 16 15 15 14 14 13 14 15 14 14 14 14 14 14 14 14 14 15 16 16 17 17 18 18 19 19 18 18 18 18 18 18 18 18 18 17 17 17 17
14 15 16 16 16 15 14 14 13 14 14 14 15 14 14 14 14 14 14 14 14 14 14 15 15 16 16 16 17 17 17 17 17 17 18 18 18 18 18 17 17 17 17 17
14 14 16 16 15 15 14 13 13 12 13 14 14 14 14 14 13 13 13 13 13 13 14 14 15 15 16 16 16 16 16 17 17 17 18 18 18 18 18 17 17 17 17 16
14 14 14 14 15 14 13 12 11 11 12 13 14 13 12 12 12 12 13 13 13 13 14 14 14 14 15 15 15 15 16 16 16 17 17 18 18 18 17 17 17 17 16 16
14 13 12 13 12 12 12 11 11 11 11 12 13 13 12 11 11 12 12 12 13 13 13 14 14 14 14 14 15 15 16 16 16 17 17 18 18 18 17 17 17 16 16 16
12 10 11 12 12 12 12 11 11 11 11 12 12 12 12 11 11 12 12 12 12 13 13 14 14 14 15 15 15 15 16 16 17 17 17 18 17 17 17 17 17 16 16 16
12 11 10 11 11 11 11 11 11 11 11 11 12 12 11 11 11 11 12 12 12 13 13 14 14 14 15 15 16 16 17 17 17 17 17 17 17 17 17 17 17 16 16 16
12 9 10 10 10 10 10 11 11 11 11 11 11 11 11 10 11 11 11 11 12 12 13 13 14 14 15 16 16 16 17 17 17 17 17 17 17 17 17 17 17 16 16 16
10 10 10 10 11 11 10 10 11 11 11 11 11 10 10 10 10 11 11 11 12 12 12 12 13 14 15 15 16 17 17 17 17 17 17 17 17 17 17 17 17 17 16 16
10 10 10 11 11 12 11 10 10 10 10 10 11 10 10 10 10 11 11 11 11 11 12 12 13 14 14 15 15 16 16 16 16 16 16 16 16 16 16 16 16 16 16 16
9 10 9 10 11 11 9 9 10 10 10 9 9 9 10 10 10 10 10 11 11 12 12 12 13 13 13 14 14 15 15 15 15 15 15 15 15 15 15 16 16 16 16 16
9 8 7 9 10 10 9 10 10 10 10 9 9 10 10 9 10 12 11 11 12 12 13 13 13 13 13 13 13 13 14 14 14 14 14 14 14 15 15 15 15 15 15 15
8 8 8 8 9 9 10 10 10 9 10 10 9 9 9 10 12 12 12 12 13 13 13 13 13 13 13 13 13 13 13 13 13 13 13 13 13 13 14 14 14 14 14 14
8 7 7 8 9 9 10 10 10 9 10 10 9 9 9 9 9 11 12 13 14 14 14 13 13 13 13 13 13 13 12 12 12 12 12 12 12 12 12 12 12 12 12 12
8 7 7 7 8 8 10 10 10 10 10 10 10 10 9 9 9 11 12 13 14 14 14 14 14 13 13 13 13 13 12 12 12 12 12 11 11 11 11 11 12 11 11 12
8 8 7 7 8 8 10 10 9 9 11 10 10 10 10 11 12 12 13 14 14 14 14 14 14 14 14 13 13 13 13 12 12 12 12 11 11 11 11 11 11 11 11 11
8 8 7 7 8 10 11 11 11 11 11 11 11 11 11 11 12 13 14 14 15 15 15 14 14 14 14 14 14 13 13 12 12 12 11 11 11 11 11 11 11 11 11 11
8 8 7 8 8 10 11 11 11 11 11 11 11 11 11 11 12 13 14 14 15 15 15 15 15 15 14 14 14 13 13 12 12 12 11 11 11 11 11 11 11 11 11 11
8 7 7 8 9 10 11 11 11 11 11 11 11 11 11 12 12 13 13 14 14 15 15 15 15 15 15 14 14 14 13 13 12 12 11 11 11 11 11 11 11 11 10 10
8 8 8 8 10 10 11 12 11 11 11 11 11 11 11 11 12 12 13 14 14 15 15 15 15 15 15 15 15 14 14 13 12 12 12 11 11 11 11 11 10 10 10 10
Wind_Speed
4 4 2 4 5 3 2 3 5 7 4 2 5 7 8 7 8 9 8 8 9 11 11 10 12 14 15 14 15 14 14 12 11 8 7 6 6 5 5 5 8 10 10 11
5 3 5 3 1 2 3 4 6 6 2 3 5 7 4 5 6 8 9 10 11 13 12 10 10 13 17 18 17 16 15 14 13 10 7 4 3 3 3 3 4 8 9 9
1 4 3 2 2 2 4 5 6 6 3 2 3 6 3 4 5 10 12 11 12 14 15 14 11 12 14 17 16 13 13 12 10 8 6 4 3 2 2 4 4 5 7 8
3 4 5 5 4 2 5 6 5 4 1 4 1 4 5 7 8 14 17 17 17 18 16 13 9 8 10 12 11 10 10 10 8 8 7 7 6 5 5 3 3 4 6 6
5 6 7 7 6 4 5 6 2 1 3 1 1 3 6 7 9 14 17 17 18 18 16 13 8 3 3 6 8 9 10 10 9 7 6 5 4 3 2 2 3 3 4 5
5 5 5 4 5 4 4 5 4 5 3 2 4 5 3 5 8 14 15 16 17 17 16 14 11 8 8 8 10 12 12 9 8 6 4 5 5 4 3 2 2 2 2 2
9 7 7 6 8 8 8 6 5 5 2 5 1 3 1 4 7 9 13 15 16 14 13 12 12 10 10 11 10 10 13 9 6 5 3 4 4 4 4 3 3 2 2 2
7 7 7 7 4 5 5 1 2 4 4 4 1 3 2 4 8 9 10 11 13 13 11 10 9 8 10 11 10 9 9 6 3 3 4 3 4 3 3 3 3 3 3 2
4 6 5 6 5 4 6 4 2 2 3 3 2 1 1 9 14 15 15 14 14 13 11 9 7 8 10 10 9 7 6 5 1 2 3 3 4 4 4 3 3 3 2 2
1 5 5 6 6 7 4 2 4 2 2 3 1 2 5 14 18 18 17 16 15 13 10 8 6 7 8 9 7 6 5 3 1 1 2 3 3 4 4 4 4 4 3 3
3 1 7 6 6 6 7 6 4 2 3 2 1 2 6 11 14 15 15 14 13 13 9 7 6 6 7 6 4 3 2 1 0 1 2 4 4 4 4 3 3 3 3 4
3 4 4 4 3 3 3 4 3 2 4 2 0 2 8 11 12 13 14 14 13 12 8 6 6 5 5 4 3 2 2 1 0 2 3 4 4 4 4 3 2 2 3 4
3 5 5 8 7 8 5 6 5 3 1 2 1 2 8 13 15 16 16 16 13 12 10 7 6 6 5 3 3 4 3 2 1 3 4 4 3 2 2 2 2 2 2 3
5 5 4 2 4 6 7 11 10 4 2 3 4 5 12 18 19 18 17 16 14 13 12 10 7 6 5 4 2 3 3 2 2 4 4 3 2 1 0 0 1 2 2 3
5 5 4 4 3 6 11 14 14 12 8 5 5 6 12 16 15 14 14 15 15 16 14 13 10 8 8 8 7 6 5 3 4 5 5 4 3 3 3 2 2 2 2 3
4 5 4 2 1 5 11 17 14 11 9 8 8 7 13 14 12 13 15 16 16 15 13 13 12 11 10 10 9 9 8 8 8 8 7 6 6 6 6 5 5 4 3 2
3 4 3 0 4 3 8 11 9 6 8 7 7 8 15 14 15 13 13 15 14 13 11 11 10 9 9 9 8 9 8 8 9 9 9 8 8 7 7 7 6 5 4 3
4 4 3 2 3 4 3 3 4 4 5 8 8 10 13 13 12 7 8 12 13 11 9 9 8 8 8 8 8 8 8 9 9 9 9 8 8 8 7 7 7 6 4 4
3 5 4 3 3 1 2 3 3 3 3 5 8 11 13 15 7 5 10 13 10 8 6 5 5 5 6 8 7 8 8 8 8 8 8 8 7 8 8 8 8 5 5 5
7 6 5 4 4 2 4 3 1 1 2 4 6 9 11 11 8 8 15 15 12 9 5 5 5 6 7 7 7 8 7 8 8 7 6 7 7 7 8 8 6 5 5 5
5 5 4 3 2 3 5 3 1 2 3 6 5 6 6 5 5 10 15 11 8 7 5 5 6 6 6 6 6 7 7 7 6 5 6 7 8 7 7 7 6 6 6 6
3 3 2 3 2 5 4 2 4 5 3 4 5 5 6 7 9 9 9 9 9 8 6 5 5 5 5 5 5 6 6 5 4 5 6 7 7 7 7 8 8 8 8 8
5 6 5 6 6 5 4 5 3 4 3 4 4 6 6 6 7 8 9 9 8 8 6 4 3 5 5 4 4 4 5 3 3 5 5 5 6 7 7 8 9 8 8 8
3 4 4 3 5 5 4 4 3 4 5 6 6 7 5 6 7 8 8 8 8 8 6 5 4 4 5 4 3 2 2 2 3 3 4 4 5 5 6 6 7 7 8 7
7 7 4 4 5 3 5 6 5 4 4 5 5 4 5 6 6 6 7 8 7 7 6 5 4 5 5 4 3 2 0 2 2 2 2 3 3 3 4 4 5 5 5 6
6 8 8 7 8 7 7 6 5 4 3 3 4 5 5 4 6 6 7 6 7 7 6 6 6 6 6 5 4 3 2 2 2 1 2 2 2 2 1 2 3 4 4 7
Wind_Direction
32 53 307 259 219 217 211 224 256 260 262 251 261 275 300 340 12 3 352 336 318 298 280 260 236 224 219 213 206 199 194 184 173 171 175 184 203 202 202 201 202 201 202 200
29 325 273 278 232 199 213 246 263 278 287 229 274 284 319 25 32 11 359 347 333 323 312 289 253 226 217 212 208 200 195 187 182 184 175 166 161 181 195 193 196 200 198 196
237 281 333 25 358 301 258 232 248 260 327 22 331 314 348 0 13 9 5 352 344 335 322 305 275 235 218 212 206 198 189 181 176 165 143 114 104 103 156 198 205 199 194 195
350 350 31 33 2 332 285 282 259 257 264 280 13 287 307 342 349 1 357 353 346 339 330 318 293 248 217 207 190 172 162 153 151 153 165 171 184 197 208 198 198 193 194 197
345 11 37 25 339 337 291 324 330 274 195 249 283 217 299 357 355 347 345 346 344 342 340 338 333 296 193 173 147 135 130 128 132 148 170 187 199 196 163 158 183 193 194 198
353 1 42 353 333 351 342 4 25 42 89 234 231 185 310 9 342 331 337 343 344 345 349 355 8 33 57 79 101 110 106 102 113 122 158 194 198 180 163 174 181 188 188 198
346 0 4 3 1 360 24 33 356 340 356 244 251 151 143 356 341 331 332 338 342 345 354 4 14 33 50 61 74 88 94 87 88 110 170 193 189 175 177 183 189 184 189 206
5 331 -0 8 9 330 339 72 205 254 246 281 321 169 148 5 343 337 336 336 344 348 352 4 16 40 53 52 57 71 89 99 111 163 185 175 159 158 172 182 179 185 191 201
355 297 337 2 3 28 357 346 265 237 264 258 266 87 64 357 355 349 348 348 347 345 350 1 18 48 62 59 48 52 71 75 96 185 157 154 157 158 167 166 159 162 165 163
70 293 317 328 15 24 32 325 20 10 262 245 248 70 359 348 344 342 344 343 339 341 349 2 23 50 59 58 47 40 45 52 284 186 167 154 152 151 147 142 152 153 147 135
58 29 322 6 27 347 358 6 0 301 255 238 210 73 14 344 335 335 337 338 339 344 350 5 27 37 54 57 49 35 33 31 172 153 139 125 129 130 130 135 148 151 148 149
66 91 334 317 331 9 30 356 337 319 311 312 146 73 9 344 339 344 346 349 351 352 356 12 29 33 46 40 13 312 293 303 184 138 126 123 117 118 124 130 137 154 164 169
69 65 7 349 357 7 6 351 334 284 287 340 38 26 359 355 1 2 360 357 359 3 11 18 20 14 15 358 308 274 271 254 204 138 130 123 116 126 142 148 149 173 181 184
92 74 86 26 343 348 354 3 11 22 29 31 26 6 360 1 358 357 358 359 8 19 24 29 25 13 8 1 338 299 293 260 162 129 122 111 95 96 185 260 232 228 214 206
74 91 93 99 74 47 34 23 27 38 35 40 21 14 359 347 345 351 357 3 16 24 29 30 29 27 27 28 26 25 21 37 82 91 79 60 45 34 16 356 329 303 269 241
60 116 135 159 241 37 34 22 22 25 18 18 19 13 344 335 345 358 5 7 12 18 22 26 29 30 30 31 31 38 44 48 63 67 55 38 34 33 21 9 3 353 327 287
56 115 119 320 309 4 20 2 8 22 26 14 10 341 333 343 347 351 358 2 3 5 10 17 21 22 23 26 33 40 42 49 56 55 47 36 32 28 18 14 14 4 346 335
110 97 104 85 54 50 289 299 344 358 30 16 355 343 344 337 320 320 0 1 354 352 356 1 6 12 16 24 31 36 39 44 49 46 40 30 26 22 12 13 8 355 349 344
92 122 103 98 97 96 317 352 358 350 353 358 347 345 346 338 333 350 357 353 339 334 337 344 358 8 16 20 21 38 36 35 39 34 27 18 17 16 11 7 356 350 349 349
49 71 96 100 117 195 253 296 324 216 334 337 341 337 341 355 17 335 331 333 330 334 341 355 3 17 19 7 14 36 29 28 23 16 13 12 16 18 12 2 356 351 352 354
25 35 69 102 134 251 248 279 126 141 264 307 316 315 325 335 272 286 308 320 326 330 341 2 13 13 0 356 16 28 22 13 358 9 22 23 19 19 16 11 10 8 12 21
157 134 151 135 151 243 236 150 170 210 249 283 289 294 301 295 294 306 322 336 344 344 343 358 4 354 347 357 16 19 6 348 7 30 35 29 24 25 22 23 22 22 23 29
184 187 185 186 209 232 213 206 220 195 236 267 272 290 300 303 315 326 331 339 342 342 336 339 345 337 340 354 12 11 345 1 43 45 36 27 27 29 27 30 26 24 24 27
235 148 141 209 251 235 228 240 250 221 229 257 271 285 294 304 313 324 331 337 340 338 335 331 332 328 323 332 349 342 344 67 75 50 28 21 26 29 30 32 30 29 24 21
208 165 165 217 243 231 249 234 239 246 255 277 298 296 303 312 318 319 323 325 327 327 323 322 305 290 288 298 307 301 221 131 92 48 18 14 22 31 35 37 33 29 29 23
192 170 173 207 203 183 214 219 216 222 253 283 308 323 327 321 312 316 315 313 317 319 319 319 306 285 279 276 272 263 223 185 159 32 1 358 1 17 37 31 25 28 27 28
Height
1500 1504 1508 1505 1504 1504 1506 1510 1512 1507 1499 1501 1502 1502 1498 1496 1495 1495 1494 1492 1490 1488 1488 1488 1489 1491 1493 1496 1498 1501 1504 1506 1509 1511 1514 1517 1519 1521 1523 1525 1527 1528 1530 1531
1506 1508 1502 1500 1501 1503 1506 1510 1511 1505 1499 1500 1503 1502 1499 1498 1498 1498 1496 1493 1489 1485 1481 1481 1481 1483 1485 1488 1491 1495 1498 1501 1505 1508 1511 1514 1517 1519 1522 1523 1525 1526 1527 1528
1508 1506 1501 1501 1504 1506 1507 1510 1508 1507 1502 1501 1504 1505 1502 1500 1499 1497 1495 1492 1488 1484 1479 1475 1475 1476 1477 1480 1483 1487 1492 1496 1501 1505 1509 1512 1514 1516 1519 1520 1522 1523 1524 1525
1506 1504 1503 1505 1507 1507 1512 1503 1503 1504 1509 1514 1509 1520 1507 1505 1501 1497 1495 1491 1486 1480 1475 1471 1469 1469 1470 1473 1476 1482 1487 1492 1497 1502 1506 1509 1511 1513 1515 1517 1519 1520 1521 1522
1510 1508 1509 1511 1510 1508 1508 1503 1503 1504 1508 1514 1513 1519 1515 1509 1507 1501 1497 1493 1488 1481 1475 1469 1465 1464 1466 1469 1472 1477 1483 1488 1494 1499 1503 1506 1508 1510 1512 1513 1515 1516 1517 1518
1512 1510 1511 1512 1509 1508 1507 1507 1508 1512 1515 1522 1513 1519 1519 1514 1511 1505 1499 1494 1489 1482 1476 1470 1466 1464 1464 1467 1470 1474 1480 1486 1491 1497 1502 1504 1506 1508 1509 1511 1512 1513 1514 1515
1522 1517 1514 1513 1514 1512 1513 1519 1528 1526 1529 1524 1512 1516 1519 1513 1510 1507 1502 1496 1490 1485 1479 1474 1470 1467 1466 1468 1471 1474 1477 1485 1489 1495 1500 1503 1505 1507 1508 1509 1510 1511 1512 1513
1535 1533 1522 1518 1520 1520 1519 1522 1534 1536 1532 1524 1513 1517 1516 1512 1509 1506 1502 1497 1491 1486 1481 1477 1474 1471 1470 1471 1473 1476 1480 1487 1491 1495 1500 1502 1504 1506 1508 1509 1509 1510 1510 1511
1537 1535 1523 1521 1520 1520 1524 1526 1525 1530 1526 1525 1519 1516 1513 1510 1508 1505 1501 1496 1492 1487 1483 1479 1476 1474 1473 1474 1477 1479 1483 1488 1493 1497 1500 1502 1503 1505 1507 1508 1508 1509 1509 1509
1533 1537 1529 1525 1522 1523 1526 1527 1531 1533 1533 1531 1522 1521 1524 1518 1514 1507 1502 1498 1493 1488 1484 1481 1479 1477 1476 1477 1479 1483 1486 1490 1495 1497 1500 1501 1503 1505 1506 1507 1508 1508 1508 1508
1532 1539 1537 1532 1533 1534 1532 1532 1532 1533 1531 1532 1530 1530 1525 1523 1518 1512 1505 1500 1494 1488 1485 1482 1481 1480 1480 1481 1483 1486 1489 1493 1496 1498 1500 1502 1503 1504 1505 1506 1507 1507 1507 1507
1535 1543 1545 1539 1535 1533 1533 1535 1535 1537 1533 1528 1529 1533 1526 1523 1518 1512 1506 1500 1495 1490 1486 1484 1483 1483 1484 1486 1488 1490 1491 1493 1495 1497 1499 1501 1502 1503 1504 1505 1505 1506 1506 1506
1536 1544 1552 1546 1544 1539 1537 1535 1533 1533 1533 1531 1531 1534 1526 1522 1517 1512 1507 1502 1497 1492 1489 1487 1486 1486 1487 1489 1490 1491 1492 1493 1494 1496 1498 1500 1501 1501 1502 1503 1504 1505 1505 1505
1535 1548 1554 1558 1554 1549 1544 1538 1533 1532 1533 1533 1534 1533 1529 1524 1520 1516 1511 1505 1501 1497 1493 1490 1490 1489 1489 1489 1489 1490 1490 1491 1492 1494 1496 1498 1499 1500 1500 1501 1502 1503 1503 1503
1538 1551 1552 1553 1550 1548 1547 1544 1539 1537 1537 1538 1538 1536 1535 1531 1527 1522 1516 1510 1505 1501 1498 1495 1493 1492 1491 1490 1490 1489 1489 1490 1491 1493 1494 1496 1496 1497 1498 1499 1500 1500 1501 1501
1543 1550 1552 1553 1550 1548 1550 1549 1546 1544 1543 1542 1539 1540 1538 1533 1528 1523 1519 1514 1510 1506 1504 1501 1498 1496 1494 1493 1492 1491 1491 1491 1492 1493 1493 1494 1495 1495 1496 1496 1497 1497 1498 1498
1548 1550 1555 1557 1552 1551 1558 1557 1554 1552 1551 1549 1548 1548 1540 1534 1529 1526 1523 1518 1515 1512 1509 1507 1504 1502 1499 1497 1496 1494 1494 1494 1493 1493 1494 1494 1494 1494 1494 1494 1494 1494 1494 1494
1548 1554 1559 1560 1557 1564 1565 1556 1556 1554 1553 1552 1550 1547 1542 1538 1532 1529 1527 1523 1520 1517 1515 1512 1510 1507 1505 1503 1501 1500 1498 1497 1496 1495 1494 1494 1493 1493 1492 1492 1491 1491 1490 1490
1547 1552 1559 1563 1564 1563 1560 1557 1557 1557 1555 1553 1550 1547 1542 1537 1532 1530 1528 1525 1523 1522 1520 1518 1515 1513 1510 1508 1506 1504 1502 1501 1499 1497 1496 1495 1494 1493 1492 1491 1489 1488 1487 1487
1550 1553 1560 1564 1563 1565 1562 1556 1556 1558 1555 1553 1550 1548 1544 1540 1539 1536 1530 1527 1525 1524 1523 1521 1519 1517 1514 1512 1510 1508 1506 1504 1502 1501 1499 1498 1496 1494 1493 1491 1489 1488 1486 1485
1557 1560 1564 1566 1565 1563 1557 1555 1556 1561 1559 1552 1550 1548 1546 1544 1544 1539 1533 1530 1528 1527 1526 1524 1522 1520 1518 1515 1514 1512 1510 1508 1506 1505 1503 1501 1499 1497 1495 1493 1491 1489 1488 1486
1558 1561 1564 1567 1566 1565 1553 1554 1556 1556 1553 1551 1550 1548 1546 1544 1541 1537 1534 1532 1530 1529 1528 1526 1525 1523 1521 1519 1517 1515 1513 1511 1509 1508 1506 1504 1502 1500 1498 1496 1494 1492 1490 1488
1555 1556 1558 1560 1560 1552 1551 1551 1551 1551 1551 1550 1549 1548 1546 1543 1540 1538 1535 1533 1531 1530 1529 1528 1527 1526 1524 1522 1520 1518 1516 1514 1513 1511 1509 1507 1505 1503 1501 1499 1497 1495 1493 1491
1550 1549 1552 1553 1551 1549 1550 1550 1550 1550 1550 1549 1548 1547 1545 1543 1541 1538 1536 1534 1532 1531 1530 1529 1528 1527 1526 1525 1523 1521 1519 1517 1515 1514 1512 1510 1508 1506 1504 1502 1500 1497 1495 1493
1544 1547 1549 1550 1548 1548 1548 1548 1549 1549 1549 1548 1547 1546 1545 1543 1541 1538 1536 1534 1533 1531 1530 1529 1529 1528 1527 1526 1524 1523 1521 1519 1517 1516 1514 1512 1510 1508 1506 1504 1502 1500 1498 1496
1537 1540 1544 1544 1541 1543 1544 1546 1547 1548 1548 1547 1547 1545 1544 1542 1540 1538 1536 1534 1533 1531 1530 1529 1528 1528 1527 1526 1525 1524 1522 1520 1519 1517 1515 1513 1511 1509 1508 1506 1504 1502 1500 1498